Location: The Saddle
(36.8333°N, 80.3417°W)
Time: 14:04:54
(UTC-04:00)

HTV-X1 - Visible Passes

Search period start: 18 May 2026 00:00
Search period end: 28 May 2026 00:00
Orbit: 372 x 382 km, 51.6° (Epoch: 18 May)

Date Brightness Start Highest point End Pass type
(mag) Time Alt. Az. Time Alt. Az. Time Alt. Az.
18 May ? 23:52:54 10° NNW 23:53:04 11° NNW 23:53:04 11° NNW visible
19 May ? 22:52:42 10° N 22:54:05 12° NNE 22:54:12 12° NNE visible
20 May ? 23:26:28 10° NNW 23:27:25 17° NNW 23:27:25 17° NNW visible
21 May ? 22:25:57 10° NNW 22:28:03 17° NNE 22:28:33 16° NE visible
22 May ? 23:00:04 10° NW 23:01:47 29° NNW 23:01:47 29° NNW visible
23 May ? 21:59:20 10° NNW 22:01:53 23° NNE 22:02:58 19° ENE visible
23 May ? 23:35:01 10° WNW 23:35:02 10° WNW 23:35:02 10° WNW visible
24 May ? 20:58:56 10° N 21:00:31 13° NNE 21:02:05 10° NE visible
24 May ? 22:33:40 10° NW 22:36:14 58° WNW 22:36:14 58° WNW visible
25 May ? 21:32:43 10° NW 21:35:36 35° NE 21:37:28 18° E visible
25 May ? 23:09:11 10° W 23:09:33 12° W 23:09:33 12° W visible
26 May ? 22:07:20 10° WNW 22:10:17 45° SW 22:10:49 40° SSW visible
27 May ? 21:06:08 10° NW 21:09:11 61° NE 21:12:07 11° ESE visible
